GW5386 Weather Reports


Display with metric or nautical units.
time (UTC)temp
F
wind
direction
speed
MPH
gust
MPH
rain 1hr
in
rain 24hr
in
rain mn
in
humidity
%
barometer
mb
20260503023044 59 68 0.0 0.0 0.00 0.00 0.00 35 1015.2
20260503021536 59 68 0.0 2.0 0.00 0.00 0.00 36 1015.1
20260503020036 60 349 2.0 4.0 0.00 0.00 0.00 35 1015.1
20260503014535 60 357 3.0 4.0 0.00 0.00 0.00 33 1015.1
20260503013036 63 354 0.0 5.0 0.00 0.00 0.00 32 1015.2
20260503011534 64 342 3.0 14.0 0.00 0.00 0.00 30 1015.2
20260503010034 63 39 2.0 5.0 0.00 0.00 0.00 32 1015.2
20260503004537 64 106 0.0 1.0 0.00 0.00 0.00 31 1015.5
20260503003038 64 136 0.0 2.0 0.00 0.00 0.00 31 1015.6
20260503001532 63 311 2.0 5.0 0.00 0.00 0.00 31 1015.7
20260503000032 64 333 2.0 5.0 0.00 0.00 0.00 30 1015.8
20260502234535 64 4 3.0 7.0 0.00 0.00 0.00 31 1016.0
20260502233030 65 51 3.0 9.0 0.00 0.00 0.00 29 1016.0
20260502231530 66 26 2.0 8.0 0.00 0.00 0.00 29 1016.1
20260502230130 66 58 3.0 8.0 0.00 0.00 0.00 29 1016.3
20260502224526 67 129 2.0 6.0 0.00 0.00 0.00 29 1016.5
20260502223124 64 79 3.0 10.0 0.00 0.00 0.00 31 1016.7
20260502221522 65 240 0.0 9.0 0.00 0.00 0.00 30 1016.9
20260502220024 65 190 3.0 9.0 0.00 0.00 0.00 31 1017.0
20260502214521 65 294 2.0 8.0 0.00 0.00 0.00 31 1017.3
20260502213034 64 233 1.0 4.0 0.00 0.00 0.00 32 1017.5
20260502211521 63 35 1.0 6.0 0.00 0.00 0.00 33 1017.6
20260502210017 63 68 3.0 7.0 0.00 0.00 0.00 33 1017.8
20260502204517 62 74 2.0 6.0 0.00 0.00 0.00 33 1017.8
20260502203016 62 98 3.0 12.0 0.00 0.00 0.00 34 1018.0
20260502201527 64 323 4.0 10.0 0.00 0.00 0.00 33 1018.0
20260502200014 63 52 5.0 11.0 0.00 0.00 0.00 35 1018.3
20260502194511 59 67 7.0 12.0 0.00 0.00 0.00 39 1018.5
20260502193011 59 60 8.0 15.0 0.00 0.00 0.00 38 1018.7
20260502191509 59 70 6.0 13.0 0.00 0.00 0.00 39 1018.9
20260502190009 59 56 4.0 11.0 0.00 0.00 0.00 39 1018.9
20260502184510 59 53 8.0 13.0 0.00 0.00 0.00 39 1019.0
20260502183009 59 55 7.0 10.0 0.00 0.00 0.00 38 1019.0
20260502181508 59 51 4.0 10.0 0.00 0.00 0.00 38 1019.0
20260502163004 59 66 3.0 14.0 0.00 0.00 0.00 36 1019.0
20260502161503 60 57 11.0 16.0 0.00 0.00 0.00 36 1019.0
20260502151612 59 98 6.0 14.0 0.00 0.00 0.00 37 1019.0
20260502123031 46 10 5.0 8.0 0.00 0.00 0.00 51 1018.1
20260502121532 46 359 7.0 11.0 0.00 0.00 0.00 51 1018.1
20260502114522 47 296 2.0 10.0 0.00 0.00 0.00 50 1017.8
20260502113026 48 354 6.0 11.0 0.00 0.00 0.00 48 1017.7
20260502111521 48 340 9.0 14.0 0.00 0.00 0.00 47 1017.5
20260502110016 49 323 8.0 12.0 0.00 0.00 0.00 46 1017.2
20260502104516 49 346 8.0 12.0 0.00 0.00 0.00 45 1017.0
20260502103014 50 334 8.0 12.0 0.00 0.00 0.00 43 1016.7
20260502101507 49 328 7.0 10.0 0.00 0.00 0.00 44 1016.4
20260502091501 51 8 3.0 7.0 0.00 0.00 0.00 38 1015.8
20260502090122 51 43 6.0 13.0 0.00 0.00 0.00 38 1015.7
20260502070100 50 321 3.0 5.0 0.00 0.00 0.00 35 1015.1
20260502064546 51 340 4.0 6.0 0.00 0.00 0.00 34 1015.0
20260502063040 50 341 3.0 6.0 0.00 0.00 0.00 35 1015.1
20260502061539 50 336 4.0 7.0 0.00 0.00 0.00 35 1015.0
20260502060043 50 328 5.0 8.0 0.00 0.00 0.00 35 1015.0
20260502054552 53 314 7.0 11.0 0.00 0.00 0.00 32 1014.9
20260502053037 53 316 8.0 10.0 0.00 0.00 0.00 31 1014.9
20260502051538 55 294 8.0 11.0 0.00 0.00 0.00 28 1015.0
20260502050036 55 298 8.0 11.0 0.00 0.00 0.00 28 1014.9
20260502044536 54 297 7.0 11.0 0.00 0.00 0.00 28 1014.9
20260502043044 53 303 7.0 9.0 0.00 0.00 0.00 28 1014.8
20260502041553 55 304 8.0 11.0 0.00 0.00 0.00 26 1014.8
20260502040048 55 302 7.0 11.0 0.00 0.00 0.00 24 1014.8
20260502034533 56 292 8.0 12.0 0.00 0.00 0.00 23 1014.6
20260502033034 56 288 6.0 9.0 0.00 0.00 0.00 22 1014.5
20260502031533 58 274 6.0 10.0 0.00 0.00 0.00 21 1014.3
20260502030046 58 288 7.0 9.0 0.00 0.00 0.00 20 1014.3
20260502024531 60 299 6.0 8.0 0.00 0.00 0.00 19 1014.1